Regional Weather Roundup
Issued by NWS

Home | Current Version | Previous Version | Graphics & Text | Print | Product List | Glossary On
Versions: 1 2 3 4 5 6 7 8 9 10 11 12 13 14 15 16 17 18 19 20 21 22 23 24 25 26 27 28 29 30 31 32 33 34 35 36 37 38 39 40 41 42 43 44 45 46 47 48 49 50
000
ASUS43 KOAX 212302
RWRNE

WEATHER ROUNDUP FOR NEBRASKA
NATIONAL WEATHER SERVICE OMAHA NE
600 PM CDT SUN SEP 21 2014

NOTES: SATELLITE DATA IS BEING USED TO AUGMENT CLOUD COVER ABOVE
       12000 FEET.
       "FAIR" INDICATES FEW OR NO CLOUDS BELOW 12,000 FEET WITH NO
       SIGNIFICANT WEATHER AND/OR OBSTRUCTIONS TO VISIBILITY.

  * THESE STATIONS DO NOT REPORT WEATHER SUCH AS RAIN...SNOW OR FOG.

NEZ001>004-019>022-054>056-220000-
NEBRASKA PANHANDLE

CITY           SKY/WX    TMP DP  RH WIND       PRES   REMARKS
SCOTTSBLUFF    MOSUNNY   74  42  31 E16       30.27F
ALLIANCE       SUNNY     74  39  28 S9        30.27F
CHADRON        SUNNY     76  41  28 E9        30.25S
KIMBALL        MOSUNNY   71  40  32 SE16      30.30R
SIDNEY         MOSUNNY   73  40  30 SE10      30.31S
$$

NEZ057>060-069>072-079>082-220000-
SOUTHWEST NEBRASKA

CITY           SKY/WX    TMP DP  RH WIND       PRES   REMARKS
NORTH PLATTE   SUNNY     74  40  29 NE8       30.27S
IMPERIAL       MOSUNNY   74  39  28 SE3       30.28S
LEXINGTON      SUNNY     74  38  27 N7        30.26S
MCCOOK         SUNNY     77  38  24 VRB6      30.26S
OGALLALA       MOSUNNY   76  41  28 CALM      30.27F
$$

NEZ005>010-023>029-035>040-094-220000-
NORTH CENTRAL NEBRASKA

CITY           SKY/WX    TMP DP  RH WIND       PRES   REMARKS
VALENTINE      SUNNY     73  36  25 N8        30.27F
AINSWORTH      SUNNY     70  38  31 N6        30.28S
BROKEN BOW     SUNNY     76  38  25 NE9       30.26S
O`NEILL        SUNNY     70  45  40 N8        30.26S
ORD            SUNNY     71  41  33 NE9       30.24F
THEDFORD       SUNNY     74  36  25 N8        30.28F
$$

NEZ041-046>049-061>064-073>077-083>087-220000-
SOUTH CENTRAL NEBRASKA

CITY           SKY/WX    TMP DP  RH WIND       PRES   REMARKS
GRAND ISLAND   SUNNY     73  42  32 N9        30.25S
AURORA         SUNNY     71  41  33 N9        30.25R
HASTINGS       SUNNY     73  40  30 N10       30.25S
HEBRON         SUNNY     74  38  27 N8        30.23R
HOLDREGE       SUNNY     73  37  26 CALM      30.25F
KEARNEY *      SUNNY     72  43  35 N10       30.26S
YORK           SUNNY     68  50  52 N6        30.24S
$$

NEZ011>018-030>034-042>045-220000-
NORTHEAST NEBRASKA

CITY           SKY/WX    TMP DP  RH WIND       PRES   REMARKS
NORFOLK        SUNNY     71  45  39 N10       30.23S
ALBION         SUNNY     71  43  36 N7        30.25S
BLAIR          SUNNY     70  46  42 N10G17    30.21S
COLUMBUS *     SUNNY     72  43  35 N12G20    30.24S
FREMONT        MOSUNNY   71  45  39 N9        30.23R
TEKAMAH        MOSUNNY   73  47  39 N9        30.21S
WAYNE          SUNNY     69  46  43 N10       30.24S
$$

NEZ050>053-065>068-078-088>093-220000-
SOUTHEAST NEBRASKA

CITY           SKY/WX    TMP DP  RH WIND       PRES   REMARKS
LINCOLN        SUNNY     72  46  39 N15       30.22S
OMAHA EPPLEY   MOSUNNY   71  47  42 N15       30.21R
BEATRICE       SUNNY     73  45  37 N14       30.21S
FALLS CITY     SUNNY     73  47  39 N14G21    30.18R
NEBRASKA CITY    N/A     70  36  28 N13G18    30.20S
PLATTSMOUTH    SUNNY     70  45  41 N10       30.21S
$$

NEZ044-045-051>053-067-220000-
OMAHA AREA

CITY           SKY/WX    TMP DP  RH WIND       PRES   REMARKS
OMAHA EPPLEY   MOSUNNY   71  47  42 N15       30.21R
BLAIR          SUNNY     70  46  42 N10G17    30.21S
FREMONT        MOSUNNY   71  45  39 N9        30.23R
MILLARD        SUNNY     71  48  43 N3        30.21S
OFFUTT AFB     SUNNY     71  48  45 N9        30.20S
PLATTSMOUTH    SUNNY     70  45  41 N10       30.21S
WAHOO          FAIR      71  43  37 N13       30.22S
$$


USA.gov is the U.S. government's official web portal to all federal, state and local government web resources and services.